Location: Newark
(25.0000°N, 73.5000°E)
Time: 02:17:49
(UTC+00:00)

ISS - Pass Details

Date: 23 June 2021
Orbit: 419 x 421 km, 51.6° (Epoch: 03 August)

Event Time Altitude Azimuth Distance (km) Brightness Sun altitude
Exits shadow 23:50:02 - 261° (W) 1,743 -1.2 -6.4°
Reaches altitude 10° 23:50:50 10° 269° (W) 1,492 -1.5 -6.2°
Maximum altitude 23:53:18 19° 317° (NW) 1,062 -1.8 -5.7°
Drops below altitude 10° 23:55:48 10° 5° (N) 1,494 -0.4 -5.2°
Sets 23:58:19 0° 24° (NNE) 2,359 1.0 -4.7°
